Vertical_Velocity
-1 -1 1 4 -1 0 0 0 0 -1 -1 -2 -3 -2 -1 -1 -2 -2 -1 -2 -2 -2
0 1 2 0 3 2 -2 -4 -2 -1 -1 -0 -1 -1 -1 -1 -1 -2 -2 -2 -1 -1
0 2 1 1 -2 -3 -1 2 2 1 -2 -0 -0 -0 -2 -2 -1 -3 -3 -2 -1 -2
-2 -0 -2 2 -0 2 1 2 1 0 -2 -1 -0 -1 -1 -0 0 -1 -2 -1 0 -4
-2 1 4 1 -0 0 2 -4 0 1 -4 -1 0 -2 -1 -1 0 0 -2 -2 -0 -2
1 2 1 1 1 -2 -0 -2 3 -0 -2 0 -1 -2 -1 1 -1 -1 0 1 -0 -1
1 -1 -1 -3 -0 -4 0 4 -0 -2 3 0 -1 -1 0 2 1 -1 -1 0 -1 -3
-1 -0 -0 1 5 4 4 1 -3 3 1 -1 1 2 2 2 1 2 -1 -3 -2 -1
0 1 3 5 1 1 -1 -1 1 3 1 -1 -2 -1 -1 2 -0 -3 -1 -2 -5 -3
7 2 -2 -3 -4 -3 -3 -1 -1 -1 1 -1 -3 -1 -0 0 1 0 -1 -3 -1 2
-1 -3 -3 -4 -3 -1 1 1 -1 -1 0 1 -1 -0 -2 -2 -0 1 0 -2 1 2
-0 -1 0 1 2 1 2 1 1 -1 -3 -0 -4 -3 -4 -2 -2 -1 -1 0 1 -1
2 3 2 2 1 1 0 -0 -1 -2 -3 -2 3 -2 1 -2 -7 -2 2 5 4 0
0 -0 0 -1 -1 -0 -1 2 1 2 -3 -1 -3 3 2 -1 -4 -1 2 0 2 6
Height
5774 5774 5776 5773 5772 5770 5769 5767 5766 5764 5762 5760 5758 5755 5751 5748 5744 5740 5737 5733 5729 5724
5765 5766 5767 5764 5762 5761 5758 5758 5755 5752 5751 5748 5745 5742 5739 5735 5731 5727 5723 5719 5714 5710
5757 5757 5755 5753 5752 5752 5748 5747 5745 5742 5739 5736 5732 5728 5724 5720 5716 5712 5708 5704 5699 5694
5746 5746 5744 5744 5744 5741 5739 5735 5733 5730 5725 5720 5717 5714 5710 5705 5701 5697 5692 5688 5682 5677
5739 5738 5735 5734 5733 5729 5727 5722 5718 5715 5711 5706 5703 5699 5694 5690 5686 5681 5676 5671 5666 5660
5729 5727 5725 5724 5721 5717 5713 5707 5704 5701 5695 5691 5688 5684 5679 5674 5669 5664 5658 5652 5647 5642
5719 5718 5715 5711 5707 5703 5697 5693 5690 5683 5679 5676 5672 5667 5662 5657 5651 5645 5639 5634 5629 5624
5709 5706 5701 5697 5694 5689 5684 5678 5672 5668 5666 5661 5656 5651 5646 5640 5634 5628 5622 5616 5611 5605
5696 5693 5689 5684 5678 5672 5666 5662 5659 5656 5650 5645 5641 5636 5630 5624 5616 5610 5604 5597 5592 5587
5682 5678 5673 5667 5662 5657 5652 5648 5644 5639 5633 5626 5621 5616 5610 5604 5598 5591 5585 5580 5574 5569
5667 5662 5656 5650 5646 5641 5636 5631 5625 5619 5612 5605 5599 5594 5589 5583 5578 5573 5566 5560 5555 5551
5650 5644 5638 5633 5629 5624 5618 5612 5606 5599 5592 5585 5577 5573 5567 5562 5557 5553 5548 5542 5535 5528
5632 5628 5622 5616 5610 5604 5597 5590 5584 5577 5571 5565 5558 5551 5546 5541 5539 5535 5530 5523 5515 5506
5615 5609 5603 5596 5589 5582 5576 5569 5563 5557 5550 5545 5538 5533 5526 5520 5516 5511 5509 5503 5496 5488